1st Responders/1st Detectors/Storm Spotters Weather Summary for Mason County, KY

Forecast Maps


Reg. NEXRAD Animation


National Fire Danger: Day 1 & 2 Map

Current NWS Watch/Warnings

SPC Convective Day 1 Outlook


Day 2 Outlook

(Click images to enlarge|Page will refresh every 5 minutes)
UK Ag. Weather Center Desktop Severe Weather Service[HERE]
Mason County, KY Hazardous Weather Outlook Webcast
(9 AM to 9 PM Mon-Fri)
[Fast]
[Dial-up]


UKAWC 1st Detectors/1st Responders Precision Weather Forecast For MASON County, Kentucky
(based on the NWS County Digital Forecast)

ISSUED AT 02:00 UTC ON TUESDAY MAR 31 2020
DAY MON TUESDAY
EDT 3HR 11P MIDN 1A 2A 3A 4A 5A 6A 7A 8A 9A 10A 11A NOON 1P 2P 3P 4P 5P 6P 7P
MAX/MIN -- -- -- -- -- -- -- -- -- 38° -- -- -- -- -- -- -- -- -- -- 49°
TEMP 47° 45° 43° 43° 41° 40° 40° 40° 38° 38° 40° 41° 43° 45° 47° 47° 47° 47° 47° 47° 47°
SKY COVER 28% 41% 40% 40% 50% 71% 81% 85% 92% 96% 96% 95% 94% 93% 92% 92% 92% 93% 94% 95% 96%
Clouds
DEW PT 36° 36° 36° 36° 34° 34° 34° 32° 34° 32° 32° 34° 34° 34° 34° 34° 34° 34° 34° 34° 34°
RH 65% 68% 73% 75% 76% 78% 78% 76% 82% 78% 76% 72% 67% 64% 62% 60% 60% 60% 60% 60% 62%
POP 12HR -- -- -- -- -- -- -- -- -- 4% -- -- -- -- -- -- -- -- -- -- --
RAIN/SNOW (liq.equ) -- -- -- 0.00in -- -- -- -- -- 0.00in -- -- -- -- -- 0.00in -- -- -- -- --
SNOWFALL -- -- -- 0in -- -- -- -- -- 0in -- -- -- -- -- 0in -- -- -- -- --
WIND SPEED(MPH) 6 6 5 5 5 5 5 5 2 2 2 5 5 2 2 2 5 7 7 7 7
WIND Gust(MPH) 10 9 9 9 8 8 7 7 7 7 6 6 6 5 5 5 6 8 9 9 10
WIND DIR N N N N N N N N N NE NE NE NE NE NE N N N N N N
DEW -- -- -- -- -- Patchy Frost Patchy Frost Frost -- -- -- -- -- -- -- -- -- -- -- -- --
HeatIndex 47 45 41 40 39 38 36 36 36 36 37 39 41 43 47 47 47 47 47 47 47
Rain Showers -- -- -- -- -- -- -- -- -- -- -- -- -- -- -- -- -- -- -- -- --
WIND CHILL -- 42° 40° 40° 38° 37° 37° 37° -- -- -- 38° 40° -- -- -- -- -- -- -- --
SPRAY COND
DRY COND
LIVESTOCK COLDSTRESS



DAY TUESDAY WEDNESDAY THURSDAY FRIDAY SATURDAY SUNDAY MONDAY
EDT 6HR 8P 9P 10P 11P MIDN 1A 2A 3A 4A 5A 6A 7A 8A 9A 10A 11A 2P 5P 8P 11P 2A 5A 8A 11A 2P 5P 8P 2A 8A 2P 8P 2A 8A 2P 8P 2A 8A 2P 8P 2A 8A 2P 8P
MAX/MIN -- -- -- -- -- -- -- -- -- -- -- -- 36° -- -- -- -- 52° -- -- -- -- 34° -- -- 59° -- -- 38° 63° -- -- 43° 65° -- -- 45° 67° -- -- 47° 67° --
TEMP 45° 45° 43° 43° 43° 41° 40° 40° 38° 38° 38° 38° 38° 38° 43° 45° 49° 52° 49° 43° 40° 38° 38° 49° 56° 58° 52° 43° 40° 61° 56° 47° 45° 63° 58° 49° 45° 63° 58° 49° 49° 65° 61°
SKY COVER 96% 95% 92% 90% 88% 85% 84% 82% 78% 74% 69% 65% 63% 64% 65% 66% 65% 60% 49% 37% 25% 27% 21% 22% 17% 21% 22% 26% 36% 20% 35% 35% 54% 52% 60% 62% 54% 41% 55% 61% 66% 65% 71%
Clouds
DEW PT 34° 36° 36° 36° 36° 36° 36° 36° 36° 34° 34° 34° 34° 36° 36° 38° 38° 36° 36° 36° 36° 34° 34° 38° 38° 38° 38° 36° 36° 40° 40° 38° 38° 47° 47° 45° 43° 47° 45° 43° 43° 50° 52°
RH 65% 70% 73% 79% 79% 81% 85% 85% 89% 85% 89% 88% 89% 88% 79% 76% 63% 54% 63% 73% 82% 88% 88% 65% 53% 46% 58% 75% 85% 45% 55% 70% 79% 57% 66% 82% 92% 55% 62% 79% 82% 60% 72%
POP 12HR 10% -- -- -- -- -- -- -- -- -- -- -- 10% -- -- -- -- -- 3% -- -- -- 0% -- -- -- 0% -- 0% -- 3% -- 10% -- 24% -- 25% -- 37% -- 36% -- 42%
RAIN/SNOW (liq.equ) 0.00in -- -- -- -- -- 0.00in -- -- -- -- -- 0.00in -- -- -- 0.00in -- 0.00in -- 0.00in -- 0.00in -- 0.00in -- 0.00in -- -- -- -- -- -- -- -- -- -- -- -- -- -- -- --
SNOWFALL 0in -- -- -- -- -- 0in -- -- -- -- -- 0in -- -- -- 0in -- 0in -- 0in -- 0in -- 0in -- 0in -- -- -- -- -- -- -- -- -- -- -- -- -- -- -- --
WIND SPEED(MPH) 7 7 7 7 7 7 7 7 7 7 7 7 7 7 7 7 7 7 5 2 1 1 1 2 2 1 1 5 5 6 2 6 2 5 1 5 5 7 1 5 5 7 6
WIND DIR N N N N N N N N N N N N N N N N N NW N N N N N NE N N NE E E E E E SE S SW W W W NE SE S SW S
HeatIndex 45 41 40 38 38 37 36 35 34 34 32 32 32 34 38 40 49 52 49 42 40 38 38 49 56 58 52 41 36 61 56 47 43 63 58 49 45 63 58 49 49 65 61
Rain Showers -- -- -- -- -- -- -- -- -- -- -- -- -- -- -- -- -- -- -- -- -- -- -- -- -- -- -- -- -- -- -- -- -- Slight Chance Slight Chance Slight Chance Chance Chance Chance Chance Chance Chance Chance
WIND CHILL 41° 41° 39° 39° 39° 36° 35° 35° 33° 33° 33° 33° 33° 33° 39° 41° -- -- -- -- -- -- -- -- -- -- -- 40° 37° -- -- -- -- -- -- -- 43° -- -- -- -- -- --
SPRAY COND
DRY COND
LIVESTOCK COLDSTRESS

Click on individual weather variable above in left-hand column (ie., TEMP, RH, QPF 12HR) to view state forecast maps






NWS 48 Hr. Forecast Maps,

Regional Hourly Observations For MASON County, Kentucky
Issued at 1000 PM EDT MON MAR 30 2020
...CENTRAL KENTUCKY...
  
CITY           SKY/WX    TMP DP  RH WIND       PRES   REMARKS
MT STERLING*   FAIR      52  32  46 NW6       30.10S                  
FLEMING/MASON* FAIR      50  33  51 NE7       30.10S                  
DANVILLE*      FAIR      55  32  41 NW3       30.09F                  
RICHMOND*      FAIR      54  36  50 CALM      30.08F                  
LEXINGTON      FAIR      53  30  41 W6        30.09S                  
FRANKFORT      FAIR      50  36  58 CALM      30.07F                  
LOUISVILLE     CLOUDY    57  31  37 N8        30.08F                  
LEBANON*       FAIR      55  37  50 CALM      30.08F                  
GLASGOW*       FAIR      52  38  57 CALM      30.08F                  
BOWLING GREEN  FAIR      56  45  66 CALM      30.08F                  


Current NOWCAST not available:
Nowcasts are not issued routinely during fair weather. Only when
precipitation or other significant weather is occuring in this county will these
forecasts be issued. Currently, there is no short term forecast in effect.


Fire Weather Forecast For MASON County, KY
Provided by the National Weather Service:

Issued at: Mon Mar 30 22:05:01 EDT 2020

CLOUD COVER                     Pcldy        Mcldy        Mcldy        Pcldy
PRECIP TYPE                      None         None         None         None
CHANCE PRECIP (%)                   0            0            0            0
TEMP (24H TREND)              38 (-9)     50 (-11)           37           53
RH % (24H TREND)             81 (+16)     58 (+21)           91           52
20FTWND-AM(MPH)                            Lgt/Var                      N  5
20FTWND-PM(MPH)                 NW  6      Lgt/Var         N  5         N  6
PRECIP AMOUNT                    0.00         0.00         0.00         0.00
PRECIP DURATION                                                             
MIXING HGT(FT-AGL)                            5710                      6450
TRANSPORT WND (MPH)                           N 12                      N 14
LAL                                 1            1            1            1
HAINES INDEX                        3            3            3            3

REMARKS...None.

.FORECAST FOR DAYS 3 THROUGH 7...
.WEDNESDAY NIGHT...Partly cloudy. Lows in the mid 30s. Northwest winds
around 5 mph. 
.THURSDAY...Sunny. Highs around 60. North winds around 5 mph. 
.FRIDAY...Mostly clear. Lows in the upper 30s. Highs in the mid 60s. East
winds around 5 mph. 
.SATURDAY...Partly cloudy. Lows in the lower 40s. Highs in the upper 60s.
Southeast winds around 5 mph. 
.SUNDAY...Mostly cloudy. A chance of showers. Lows in the mid 40s. Highs
in the upper 60s. West winds around 5 mph. 
.MONDAY...Mostly cloudy. A chance of showers. Lows in the upper 40s. Highs
in the upper 60s. South winds around 5 mph. 

SPC's Fire Weather Web Tool (Excellent!), SPC's Fire Weather Outlooks, NWS Fire Weather WEB, Fire Danger Class Map,
Keetch-Byram Drought Index, ROMAN Web, Haines Index ,
WFAS's 10-hr Dead Fuel Moist., WFAS's 100-hr Dead Fuel Moist., Probablity of Ignition, Visual blackness Map, Palmer Drought Index, HPC's Rainfall Forecast Maps


Hazardous Weather Outlook For MASON County, Kentucky
418 AM EDT Mon Mar 30 2020

 DAY ONE  Today and tonight.

No hazardous weather is expected at this time.

 DAYS TWO THROUGH SEVEN  Tuesday through Sunday.

No hazardous weather is expected at this time.

 SPOTTER INFORMATION STATEMENT  

Spotter activation is not expected at this time.

Latest MASON County, Kentucky Watches, Warnings and Advisories.
Additional Drought Info.: UKAWC Drought Page, Kentucky Drought Watch


7-Day Forecast For MASON County, KY

OVERNIGHT
Partly cloudy late this evening, then becoming mostly cloudy. Lows around 40. North winds around 5 mph.

TUESDAY
Cloudy. Highs around 50. Northeast winds 5 to 10 mph.

TUESDAY NIGHT
Mostly cloudy. Lows in the upper 30s. North winds 5 to 10 mph.

WEDNESDAY
Partly cloudy. Highs in the lower 50s. North winds 5 to 10 mph.

WEDNESDAY NIGHT
Partly cloudy in the evening, then clearing. Lows in the mid 30s. North winds 5 to 10 mph.

THURSDAY
Mostly sunny. Highs around 60.

THURSDAY NIGHT
Mostly clear. Lows in the upper 30s.

FRIDAY
Partly cloudy in the morning, then clearing. Highs in the mid 60s.

FRIDAY NIGHT
Partly cloudy. Lows in the lower 40s.

SATURDAY
Partly cloudy. Highs in the upper 60s.

SATURDAY NIGHT
Partly cloudy. Lows in the mid 40s.

SUNDAY
Partly cloudy with a 40 percent chance of showers. Highs in the upper 60s.

SUNDAY NIGHT
Partly cloudy with a 40 percent chance of showers. Lows in the upper 40s.

MONDAY
Partly cloudy with a 40 percent chance of showers. Highs in the upper 60s.

Ag Weather Center, Department of Biosystems & Agricultural Engineering, University of Kentucky